Location: Br�ttisellen
(47.4227°N, 8.6287°E)
Time: 05:36:03
(UTC+00:00)

STARLINK-1243 - Pass Details

Date: 09 April 2020
Orbit: 549 x 550 km, 53.0° (Epoch: 29 May)

Event Time Altitude Azimuth Distance (km) Brightness Sun altitude
Rises 19:22:59 0° 296° (WNW) 2,726 9.3 -12.9°
Reaches altitude 10° 19:25:14 10° 300° (WNW) 1,830 7.8 -13.2°
Maximum altitude 19:29:22 62° 21° (NNE) 623 3.9 -13.8°
Enters shadow 19:31:51 23° 98° (E) 1,209 4.8 -14.2°
